www.pogodaiklimat.ru

Погода и климат >> Архив погоды >> Россия >> Дагестан >> Дербент


АРХИВ ПОГОДЫ в Дербенте

Время (UTC), дата Ветер
(напр.,м/с)
 
Видим.   Явления Облачность Т
(С)
Тd
(С)
f
(%)
Тe
(С)
Тes
(С)
Комфортность P
(гПа)
Po
(гПа)
Тmin
(С)
Tmax
(С)
R
(мм)
R24
(мм)
S
(см)
18 16.09 СЗ 2 10 км 4/0
[Ac trans]
+22.4 +18.0 76 +27 +27 душно 1011.2 1013.3
21 16.09 СЗ 5 10 км 5/0
[Ac trans]
+22.3 +16.1 68 +26 +26 жарко 1010.0 1012.1
00 17.09 СЗ 5
{13}
10 км 5/0
[Ac trans]
+22.1 +17.7 76 +27 +27 душно 1009.6 1011.7
03 17.09 СЗ 5
{12}
20 км 4/0
[Ac trans]
+22.1 +16.9 72 +26 +26 душно 1010.3 1012.4 +22.1
06 17.09 СЗ 4
{12}
20 км 4/4 600 м
[Cu med, cong]
+26.2 +17.5 59 +30 +33 душно 1010.8 1012.9
09 17.09 С 5 20 км ясно +28.1 +18.3 55 +33 +39 очень
душно
1009.5 1011.5
12 17.09 С 4 20 км 3/0
[Ac trans]
+27.0 +14.9 47 +30 +33 душно 1008.5 1010.5
15 17.09 С 3 20 км 5/5 600 м
[Sc]
+23.6 +18.8 74 +28 +28 душно 1008.9 1011.0 +28.3
18 17.09 СЗ 2 10 км 8/8 600 м
[Sc]
+23.0 +17.5 71 +28 +28 душно 1010.1 1012.2
21 17.09 З 1 10 км 9/9 300 м
[Cb cap]
+22.2 +18.3 79 +27 +27 душно 1010.1 1012.2
00 18.09 СЗ 3 10 км 8/8 300 м
[Cb cap]
+21.2 +15.6 70 +24 +24 комфорт 1011.9 1014.0
03 18.09 З 1 20 км ясно +21.4 +15.4 69 +25 +25 комфорт 1013.8 1015.9 +20.7
06 18.09 В 1 20 км ясно +25.1 +15.7 56 +28 +36 жарко 1015.5 1017.6
09 18.09 СВ 2 20 км ясно +26.2 +14.5 49 +29 +41 жарко 1015.5 1017.5
12 18.09 В 3 20 км ясно +25.5 +16.0 56 +29 +33 душно 1015.1 1017.2
15 18.09 ЮВ 3 20 км 6/3 600 м
[Sc Ac trans]
+23.2 +18.3 74 +29 +29 душно 1014.7 1016.8 +26.8
18 18.09 Ю 2 10 км 9/8 600 м
[Sc Ac trans]
+22.4 +18.3 78 +28 +28 душно 1013.9 1016.0
21 18.09 штиль 0 10 км 8/0
[Ac trans]
+21.4 +18.3 83 +26 +26 душно 1012.1 1014.2
00 19.09 СЗ 1 10 км 4/0
[Ac trans]
+21.0 +18.1 84 +26 +26 душно 1011.2 1013.3
03 19.09 СЗ 3 20 км 8/6 600 м
[Sc Ac trans]
+21.4 +16.4 73 +25 +25 комфорт 1013.4 1015.5 +20.4
06 19.09 СЗ 5-13
{13}
20 км 6/0
[Ac trans]
+25.0 +15.9 57 +28 +31 жарко 1016.5 1018.6
09 19.09 СЗ 5-15
{17}
20 км 9/6 600 м
[Sc Ac trans]
+23.4 +12.7 51 +26 +28 жарко 1018.5 1020.6
12 19.09 С 4-13
{15}
20 км 4/0
[Ac trans]
+24.8 +11.3 43 +26 +29 жарко 1019.4 1021.5
15 19.09 С 3 20 км 9/9 600 м
[Sc]
+22.2 +12.6 54 +25 +25 комфорт 1020.1 1022.2 +26.5
18 19.09 СЗ 1 10 км 9/6 600 м
[Sc Ac trans]
+21.5 +12.3 56 +24 +24 комфорт 1020.8 1022.9
21 19.09 ЮЗ 1 10 км 8/3 600 м
[Sc Ac trans]
+19.7 +12.2 62 +22 +22 комфорт 1019.8 1021.9
00 20.09 З 1 10 км 9/4 600 м
[Sc Ac trans]
+18.8 +12.1 65 +21 +21 комфорт 1018.4 1020.5
03 20.09 ЮЗ 1 20 км 10/10
[Sc]
+20.2 +14.1 68 +24 +24 комфорт 1018.1 1020.2 +18.6
06 20.09 В 2 20 км 4/0
[Ci fib]
+24.5 +14.4 53 +27 +33 жарко 1017.2 1019.3
09 20.09 В 3 20 км ясно +24.4 +15.6 58 +27 +37 жарко 1014.1 1016.2
12 20.09 В 3 20 км ясно +24.5 +16.3 60 +28 +32 душно 1011.8 1013.9
15 20.09 ЮВ 2 20 км ясно +21.8 +15.8 69 +25 +25 комфорт 1010.4 1012.5 +24.9
18 20.09 штиль 0 10 км ясно +19.7 +15.4 76 +22 +22 комфорт 1009.0 1011.1
21 20.09 Ю 2 10 км ясно +19.3 +15.3 78 +22 +22 комфорт 1005.3 1007.4
00 21.09 СЗ 3 10 км 4/4 600 м
[Sc]
+18.3 +14.9 81 +19 +19 тепло 1004.6 1006.7
03 21.09 СЗ 3
{10}
20 км 4/4 600 м
[Sc]
+19.5 +15.1 76 +22 +22 комфорт 1006.8 1008.9 +17.7
06 21.09 СЗ 6-16
{16}
20 км 9/9 600 м
[Sc]
+20.7 +13.9 65 +23 +23 комфорт 1009.1 1011.2
09 21.09 С 7-15
{16}
20 км 9/9 600 м
[Sc]
+20.4 +12.2 59 +22 +22 комфорт 1010.6 1012.7
12 21.09 СЗ 6-15
{17}
20 км 10/10 300 м
[Cb cap]
+18.1 +10.3 60 +18 +18 прохладно 1013.1 1015.2
15 21.09 СЗ 6-15
{16}
20 км 10/10 300 м
[Cb cap]
+16.1 +8.3 60 +15 +15 холодно 1015.9 1018.1 +21.6
18 21.09 СЗ 4
{14}
10 км в посл. час ливневой дождь 10/10 300 м
[Cb cap]
+14.9 +7.6 62 +14 +14 холодно 1018.3 1020.5
21 21.09 СЗ 3
{11}
10 км в посл. час ливневой дождь 10/10 300 м
[Cb cap]
+13.2 +6.6 64 +12 +12 холодно 1019.2 1021.4
00 22.09 СЗ 3 10 км {ливн. осадки} 10/10 600 м
[Sc]
+14.9 +3.7 47 +14 +14 прохладно 1019.3 1021.5
03 22.09 З 2 20 км 8/6 600 м
[Sc Ac trans]
+14.9 +5.0 52 +15 +15 прохладно 1021.7 1023.9 +12.9 0.0
06 22.09 СЗ 3 20 км 8/4 600 м
[Sc Ac trans]
+19.0 +6.6 44 +20 +22 по сезону 1023.6 1025.7
09 22.09 СВ 4 20 км 6/0
[Ac trans]
+20.2 +8.0 45 +21 +26 комфорт 1023.1 1025.2
12 22.09 В 2 20 км 9/5 600 м
[Sc Ac trans]
+18.4 +6.7 46 +19 +20 прохладно 1022.3 1024.4
15 22.09 Ю 2 20 км 9/6 600 м
[Sc Ac trans]
+17.0 +7.1 52 +17 +17 прохладно 1021.5 1023.6 +21.0
18 22.09 Ю 2 10 км ясно +15.8 +7.9 59 +16 +16 прохладно 1021.7 1023.9
21 22.09 З 1 10 км ясно +15.6 +6.1 53 +16 +16 прохладно 1020.5 1027.7
00 23.09 З 1 10 км ясно +12.7 +6.2 65 +13 +13 прохладно 1019.9 1022.1
03 23.09 СЗ 2 20 км ясно +17.0 +0.4 32 +17 +17 по сезону 1019.6 1021.7 +12.7
06 23.09 С 2 20 км ясно +23.6 +2.0 24 +23 +29 комфорт 1019.9 1022.0
09 23.09 С 3 20 км ясно +24.1 +8.1 36 +25 +34 комфорт 1018.5 1020.5
12 23.09 СВ 2 20 км ясно +23.2 +8.4 39 +24 +29 комфорт 1017.9 1020.0
15 23.09 СВ 1 20 км ясно +18.8 +10.0 57 +21 +21 комфорт 1018.3 1020.5 +24.4

 

Местоположение метеостанции Дербент (Дагестан, Россия): широта 42.07 долгота 48.30 высота над уровнем моря -17 м.

В архиве по умолчанию представлена погода в Дербенте за последнюю неделю. Архивные данные за месяц целиком и за предыдущие месяцы, начиная с января 2011 года, Вы можете получить, выбрав интересующий диапазон дат из раскрывающегося списка и нажав кнопку "Ввод!".


*Определитесь, кто Вы:
робот инопланетянин человек

Внимание! Время в таблицах - всемирное. Для получения местного времени необходимо прибавить поправку, которая равна 3 ч.

Смотрите также архив погоды в соседних городах и на ближайших метеорологических станциях:

Погода в Касумкенте (Дагестан, Россия) (46 км)
Погода в Изберге (Дагестан, Россия) (60 км)
Погода в Сергокале (Дагестан, Россия) (67 км)
Погода в Губе (Азербайджан) (80 км)
Погода в Ахты (Дагестан, Россия) (81 км)
Погода в Кумухе (Дагестан, Россия) (98 км)
Погода в Куппе (Дагестан, Россия) (107 км)
Погода в Гунибе (Дагестан, Россия) (116 км)
Погода в Махачкале (Дагестан, Россия) (125 км)
Погода в Габале (Азербайджан) (126 км)

Пояснения к столбцам:

Ветер - указаны скорость ветра в м/с - средняя за 10 мин, порывы в срок и между сроками (в фигурных скобках) и направление, откуда дует ветер: С - северный, СВ - северо-восточный, В - восточный, ЮВ - юго-восточный, Ю - южный, ЮЗ - юго-западный, З - западный, СЗ - северо-западный.
Видимость - горизонтальная дальность видимости в метрах или километрах. При видимости от 1 до 10 км при отсутствии осадков обычно наблюдается дымка, при ухудшении видимости до 1 км и менее - туман. В сухую погоду видимость может ухудшаться дымом, пылью или мглою.
Явления - указаны атмосферные явления, наблюдавшиеся в срок или в последний час перед сроком; фигурными скобками обозначены явления, наблюдавшиеся между сроками (за 1-3 часа до срока); квадратными скобками обозначены град или гололедные отложения с указанием их диаметра в мм.
Облачность - указаны через наклонную черту общая и нижняя облачность в баллах и высота нижней границы облаков в метрах; квадратными скобками обозначены формы облаков: Ci - перистые, Cs - перисто-слоистые, Cc - перисто-кучевые, Ac - высококучевые, As - высокослоистые, Sc - слоисто-кучевые, Ns - слоисто-дождевые, Cu - кучевые, Cb - кучево-дождевые. Подробнее классификацию облаков см. в Атласе облаков (PDF).
T - Температура воздуха - температура, измеренная на высоте 2 м над землей.
Td - Температура точки росы - температура, при понижении до которой содержащийся в воздухе водяной пар достигнет насыщения.
f - Относительная влажность воздуха - влажноcть воздуха, измеренная на высоте 2 м над землей.
Te - Эффективная температура - температура, которую ощущает одетый по сезону человек в тени. Характеристика душности погоды. При расчете учитывается влияние влажности воздуха и скорости ветра на теплоощущения человека.
Tes - Эффективная температура на солнце - температура, которую ощущает человек, с поправкой на солнечный нагрев. Характеристика знойности погоды. Зависит от высоты солнца над горизонтом, облачности и скорости ветра. Ночью, в пасмурную погоду, а также при ветре 12 м/с и более поправка равна нулю.
P - Атмосферное давление - приведенное к уровню моря атмосферное давление.
Po - Атмосферное давление - измеренное на уровне метеостанции атмосферное давление.
Tmin - Минимальная температура - минимум температуры воздуха на высоте 2 м над землей.
Tmax - Максимальная температура - максимум температуры воздуха на высоте 2 м над землей.
R - Количество осадков - Количество выпавших осадков за период времени, мм. При наведении курсора мыши на число - период времени, за который выпало указанное количество осадков.
R24 - Количество осадков - Количество выпавших осадков за 24 часа, мм.
S - Снежный покров - Высота снежного покрова, см. При наведении курсора мыши на число - состояние снежного покрова и степень покрытия местности в баллах.